Air Force Academy, CO

6:13 AM MST on November 17, 2019 (GMT -0700)
Usaf Academy

Weather History for KAFF - May, 2019

Change the Weather History Date:

Thursday, May 9, 2019

  Actual Average Record
Temperature  
Mean Temperature 32 °F -  
Max Temperature 36 °F 63 °F 78 °F (2018)
Min Temperature 29 °F 36 °F 23 °F (2002)
Degree Days  
Heating Degree Days 33    
Moisture  
Dew Point 31 °F    
Average Humidity 94    
Maximum Humidity 100    
Minimum Humidity 70    
Precipitation  
Precipitation 0.03 in - - ()
Sea Level Pressure  
Sea Level Pressure 30.14 in    
Wind  
Wind Speed 10 mph (ENE)    
Max Wind Speed 14 mph    
Max Gust Speed -    
Visibility 8 miles    
Events Rain , Snow    
Averages and records for this station are not official NWS values.
T = Trace of Precipitation, MM = Missing Value Source: NWS Daily Summary

Daily Weather History Graph

Daily Weather History Graph

Search for Another Location

Airport or City:

Astronomy

May. 09, 2019 Rise Set
Actual Time 5:52 AM MDT 7:59 PM MDT
Civil Twilight 5:23 AM MDT 8:29 PM MDT
Nautical Twilight 4:46 AM MDT 9:05 PM MDT
Astronomical Twilight 4:07 AM MDT 9:44 PM MDT
Moon 9:51 AM MDT (5/9) 12:00 AM MDT (5/9)
Length of Visible Light 15h 06m
Length of Day
14h 06m
Waxing Crescent, 25% of the Moon is Illuminated
May 9
Waxing Crescent
May 11
First Quarter
May 18
Full
May 26
Last Quarter
Jun 3
New

Hourly Weather History & Observations

Time (MDT) Temp. Windchill Dew Point Humidity Pressure Visibility Wind Dir Wind Speed Gust Speed Precip Events Conditions
12:13 AM 32.0 °F 23.0 °F 32.0 °F 100% 30.06 in 4.0 mi NNW 11.5 mph - N/A Snow Light Snow
12:28 AM 32.0 °F 23.6 °F 32.0 °F 100% 30.06 in 6.0 mi NNW 10.4 mph - N/A Snow Light Snow
12:43 AM 32.0 °F 23.6 °F 32.0 °F 100% 30.06 in 9.0 mi North 10.4 mph - N/A   Overcast
12:58 AM 31.6 °F 23.1 °F 31.5 °F 99% 30.06 in 10.0 mi NNW 10.4 mph - 0.00 in Snow Light Snow
1:10 AM 32.0 °F 23.0 °F 32.0 °F 100% 30.07 in 8.0 mi NNW 11.5 mph - N/A Snow Light Snow
1:25 AM 32.0 °F 22.1 °F 30.2 °F 93% 30.07 in 5.0 mi NNW 13.8 mph - N/A Snow Light Snow
1:40 AM 32.0 °F 23.6 °F 30.2 °F 93% 30.07 in 4.0 mi NNW 10.4 mph - N/A Snow Light Snow
1:55 AM 32.0 °F 22.5 °F 32.0 °F 100% 30.07 in 3.0 mi NNW 12.7 mph - N/A Snow Light Snow
1:58 AM 31.3 °F 21.6 °F 31.1 °F 99% 30.07 in 3.0 mi NNW 12.7 mph - 0.02 in Snow Light Snow
2:13 AM 30.2 °F 21.9 °F 30.2 °F 100% 30.07 in 2.8 mi NNW 9.2 mph - N/A Snow Light Snow
2:28 AM 30.2 °F 21.9 °F 30.2 °F 100% 30.07 in 4.0 mi NNW 9.2 mph - N/A Snow Light Snow
2:43 AM 30.2 °F 20.8 °F 30.2 °F 100% 30.07 in 5.0 mi NNW 11.5 mph - N/A Snow Light Snow
2:57 AM 30.2 °F 21.9 °F 30.2 °F 100% 30.07 in 10.0 mi North 9.2 mph - N/A   Partly Cloudy
2:58 AM 30.6 °F 22.4 °F 29.8 °F 97% 30.07 in 10.0 mi North 9.2 mph - 0.00 in   Partly Cloudy
3:18 AM 30.2 °F 21.9 °F 30.2 °F 100% 30.06 in 10.0 mi North 9.2 mph - N/A Snow Light Snow
3:58 AM 30.4 °F 23.6 °F 30.2 °F 99% 30.09 in 9.0 mi North 6.9 mph - 0.00 in Snow Light Snow
4:28 AM 30.2 °F 21.3 °F 30.2 °F 100% 30.10 in 6.0 mi NNW 10.4 mph - N/A Snow Light Snow
4:43 AM 30.2 °F 21.3 °F 30.2 °F 100% 30.10 in 4.0 mi NNW 10.4 mph - N/A Snow Light Snow
4:58 AM 30.2 °F 23.4 °F 29.7 °F 98% 30.10 in 5.0 mi North 6.9 mph - 0.00 in Snow Light Snow
5:43 AM 30.2 °F 22.6 °F 30.2 °F 100% 30.09 in 5.0 mi North 8.1 mph - N/A Snow Light Snow
5:58 AM 30.2 °F 21.3 °F 30.0 °F 99% 30.10 in 2.8 mi North 10.4 mph - 0.00 in Snow Light Snow
6:10 AM 30.2 °F 20.8 °F 30.2 °F 100% 30.10 in 2.5 mi North 11.5 mph - N/A Snow Light Snow
6:25 AM 30.2 °F 21.3 °F 30.2 °F 100% 30.12 in 4.0 mi NNW 10.4 mph - N/A Snow Light Snow
6:40 AM 30.2 °F 22.6 °F 30.2 °F 100% 30.12 in 5.0 mi North 8.1 mph - N/A Snow Light Snow
6:58 AM 29.8 °F 20.9 °F 28.8 °F 96% 30.13 in 7.0 mi North 10.4 mph - 0.00 in Snow Light Snow
7:58 AM 30.4 °F 22.2 °F 29.1 °F 95% 30.15 in 8.0 mi North 9.2 mph - 0.00 in Snow Light Snow
8:28 AM 32.0 °F 23.6 °F 28.4 °F 87% 30.14 in 7.0 mi NNW 10.4 mph - N/A Snow Light Snow
8:44 AM 32.0 °F 24.2 °F 30.2 °F 93% 30.14 in 10.0 mi North 9.2 mph - N/A Snow Light Snow
8:58 AM 32.0 °F 23.0 °F 29.5 °F 90% 30.14 in 10.0 mi North 11.5 mph - 0.00 in Snow Light Snow
9:04 AM 32.0 °F 24.2 °F 28.4 °F 87% 30.14 in 10.0 mi North 9.2 mph - N/A Snow Light Snow
9:36 AM 32.0 °F 23.6 °F 30.2 °F 93% 30.17 in 7.0 mi North 10.4 mph - N/A Snow Light Snow
9:58 AM 32.5 °F 25.5 °F 29.3 °F 88% 30.17 in 9.0 mi North 8.1 mph - 0.00 in Snow Light Snow
10:03 AM 33.8 °F 25.3 °F 30.2 °F 87% 30.15 in 9.0 mi North 11.5 mph - N/A Snow Light Snow
10:16 AM 33.8 °F 25.3 °F 30.2 °F 87% 30.16 in 10.0 mi North 11.5 mph - N/A Rain Light Rain
10:43 AM 33.8 °F 25.8 °F 30.2 °F 87% 30.16 in 10.0 mi North 10.4 mph - N/A   Mostly Cloudy
10:58 AM 35.4 °F 26.8 °F 29.5 °F 79% 30.17 in 10.0 mi North 12.7 mph - 0.00 in   Overcast
11:13 AM 35.6 °F 28.0 °F 28.4 °F 75% 30.17 in 10.0 mi North 10.4 mph - N/A Snow Light Snow
11:54 AM 35.6 °F 27.5 °F 28.4 °F 75% 30.17 in 10.0 mi North 11.5 mph - N/A   Overcast
11:59 AM 35.6 °F 28.0 °F 27.1 °F 71% 30.17 in 10.0 mi North 10.4 mph - N/A   Overcast
12:22 PM 35.6 °F 28.0 °F 26.6 °F 70% 30.17 in 10.0 mi NNW 10.4 mph - N/A Snow Light Snow
12:58 PM 34.7 °F 28.1 °F 25.9 °F 70% 30.17 in 10.0 mi NW 8.1 mph - 0.00 in Snow Light Snow
1:58 PM 34.3 °F 31.4 °F 26.2 °F 72% 30.17 in 10.0 mi NW 3.5 mph - N/A Snow Light Snow
2:43 PM 33.8 °F 30.8 °F 26.6 °F 75% 30.17 in 10.0 mi SE 3.5 mph - N/A Snow Light Snow
2:58 PM 34.7 °F 29.6 °F 27.0 °F 73% 30.15 in 10.0 mi South 5.8 mph - 0.01 in Snow Light Snow
3:21 PM 33.8 °F 28.6 °F 28.4 °F 81% 30.17 in 10.0 mi South 5.8 mph - N/A Snow Light Snow
3:47 PM 33.8 °F 26.4 °F 30.2 °F 87% 30.15 in 10.0 mi South 9.2 mph - N/A Snow Light Snow
3:58 PM 34.2 °F 29.0 °F 30.2 °F 85% 30.14 in 10.0 mi South 5.8 mph - N/A Snow Light Snow
4:03 PM 33.8 °F 28.6 °F 30.2 °F 87% 30.14 in 9.0 mi SSW 5.8 mph - N/A Snow Light Snow
4:18 PM 33.8 °F 25.8 °F 32.0 °F 93% 30.15 in 3.0 mi SSE 10.4 mph - N/A Snow Light Snow
4:33 PM 32.0 °F 23.0 °F 32.0 °F 100% 30.15 in 2.2 mi SSE 11.5 mph - N/A Snow Light Snow
4:48 PM 33.8 °F 25.3 °F 32.0 °F 93% 30.15 in 9.0 mi SSE 11.5 mph - N/A Snow Light Snow
4:58 PM 33.4 °F 25.9 °F 31.1 °F 91% 30.15 in 10.0 mi SSE 9.2 mph - N/A Snow Light Snow
5:20 PM 33.8 °F 26.4 °F 30.2 °F 87% 30.15 in 9.0 mi SSE 9.2 mph - N/A Snow Light Snow
5:27 PM 33.8 °F 25.3 °F 30.2 °F 87% 30.15 in 10.0 mi SSE 11.5 mph - N/A Snow Light Snow
5:42 PM 33.8 °F 25.8 °F 30.2 °F 87% 30.15 in 3.0 mi SSE 10.4 mph - N/A Snow Light Snow
5:58 PM 32.5 °F 25.5 °F 31.8 °F 97% 30.09 in 2.0 mi SSE 8.1 mph - N/A Snow Light Snow
6:28 PM 32.0 °F 23.6 °F 32.0 °F 100% 30.17 in 3.0 mi SSE 10.4 mph - N/A Snow Light Snow
6:43 PM 32.0 °F 25.6 °F 32.0 °F 100% 30.17 in 5.0 mi SSE 6.9 mph - N/A Rain Light Rain
6:58 PM 32.2 °F 25.0 °F 32.0 °F 99% 30.17 in 5.0 mi SSE 8.1 mph - 0.00 in Snow Light Snow
7:13 PM 32.0 °F 25.6 °F 32.0 °F 100% 30.17 in 9.0 mi SSE 6.9 mph - N/A Snow Light Snow
7:23 PM 32.0 °F 24.8 °F 32.0 °F 100% 30.15 in 10.0 mi SSE 8.1 mph - N/A   Overcast
7:58 PM 32.4 °F 24.6 °F 32.2 °F 99% 30.17 in 10.0 mi South 9.2 mph - 0.00 in   Overcast
8:55 PM 32.0 °F 23.6 °F 32.0 °F 100% 30.17 in 10.0 mi SSE 10.4 mph - N/A   Light Freezing Drizzle
8:57 PM 32.0 °F 24.2 °F 32.0 °F 100% 30.17 in 10.0 mi SSE 9.2 mph - N/A   Overcast
8:58 PM 32.2 °F 24.4 °F 32.0 °F 99% 30.17 in 10.0 mi SSE 9.2 mph - 0.00 in   Overcast
9:49 PM 32.0 °F 24.2 °F 32.0 °F 100% 30.19 in 10.0 mi SSE 9.2 mph - N/A   Light Freezing Drizzle
9:58 PM 32.0 °F 24.2 °F 31.8 °F 99% 30.19 in 10.0 mi SSE 9.2 mph - 0.00 in   Light Freezing Drizzle
10:02 PM 32.0 °F 23.6 °F 32.0 °F 100% 30.19 in 10.0 mi South 10.4 mph - N/A   Overcast
10:05 PM 32.0 °F 22.5 °F 32.0 °F 100% 30.19 in 10.0 mi SSE 12.7 mph - N/A   Light Freezing Drizzle
10:12 PM 32.0 °F 25.6 °F 32.0 °F 100% 30.18 in 10.0 mi SSE 6.9 mph - N/A   Overcast
10:13 PM 32.0 °F 25.6 °F 32.0 °F 100% 30.18 in 10.0 mi SSE 6.9 mph - N/A   Light Freezing Drizzle
10:21 PM 32.0 °F 23.6 °F 32.0 °F 100% 30.19 in 10.0 mi SSE 10.4 mph - N/A   Light Freezing Drizzle
10:23 PM 32.0 °F 23.6 °F 32.0 °F 100% 30.19 in 10.0 mi SSE 10.4 mph - N/A   Overcast
10:26 PM 32.0 °F 24.8 °F 32.0 °F 100% 30.18 in 10.0 mi SSE 8.1 mph - N/A   Light Freezing Drizzle
10:28 PM 32.0 °F 24.8 °F 32.0 °F 100% 30.18 in 10.0 mi SSE 8.1 mph - N/A   Light Freezing Drizzle
10:49 PM 32.0 °F 24.8 °F 32.0 °F 100% 30.19 in 10.0 mi South 8.1 mph - N/A   Overcast
10:52 PM 32.0 °F 24.8 °F 32.0 °F 100% 30.19 in 10.0 mi South 8.1 mph - N/A   Light Freezing Drizzle
10:58 PM 31.8 °F 23.3 °F 31.6 °F 99% 30.19 in 10.0 mi SSE 10.4 mph - 0.00 in   Light Freezing Drizzle
11:06 PM 32.0 °F 24.8 °F 32.0 °F 100% 30.19 in 10.0 mi SSE 8.1 mph - N/A   Overcast
11:45 PM 32.0 °F 27.5 °F 32.0 °F 100% 30.18 in 10.0 mi South 4.6 mph - N/A   Overcast
11:55 PM 32.0 °F 27.5 °F 32.0 °F 100% 30.19 in 9.0 mi South 4.6 mph - N/A Rain Light Freezing Rain
11:56 PM 32.0 °F 26.4 °F 32.0 °F 100% 30.19 in 9.0 mi South 5.8 mph - N/A   Overcast
11:57 PM 32.0 °F 25.6 °F 32.0 °F 100% 30.19 in 9.0 mi South 6.9 mph - N/A Rain Light Freezing Rain
11:58 PM 31.6 °F 25.1 °F 31.5 °F 99% 30.19 in 9.0 mi South 6.9 mph - 0.00 in Rain Light Freezing Rain